Location: Kumla
(59.1265°N, 15.1401°E)
Time: 16:01:23
(UTC+01:00)

Vanguard 2 Rocket - Pass Details

Date: 09 December 2023
Orbit: 554 x 3309 km, 32.9° (Epoch: 26 February)

Event Time Altitude Azimuth Distance (km) Brightness Sun altitude
Rises 19:03:05 0° 265° (W) 7,164 12.7 -28.6°
Reaches altitude 10° 19:10:48 10° 248° (WSW) 6,266 11.9 -29.5°
Maximum altitude 19:20:29 16° 219° (SW) 5,628 11.2 -30.8°
Drops below altitude 10° 19:29:32 10° 189° (S) 5,757 10.9 -31.9°
Sets 19:36:08 0° 171° (S) 6,323 11.0 -32.8°
